Sitka, AK

1:52 PM AKDT on September 30, 2016 (GMT -0800)
Sitka Rocky Gutierrez

Weather History for PASI - March, 2012

Change the Weather History Date:

Friday, March 23, 2012

  Actual Average Record
Temperature  
Mean Temperature 34 °F -  
Max Temperature 39 °F 43 °F 53 °F (1990)
Min Temperature 28 °F 32 °F 23 °F (1967)
Degree Days  
Heating Degree Days 32    
Moisture  
Dew Point 28 °F    
Average Humidity 76    
Maximum Humidity 88    
Minimum Humidity 57    
Precipitation  
Precipitation 0.00 in - - ()
Sea Level Pressure  
Sea Level Pressure 30.13 in    
Wind  
Wind Speed 2 mph (SSE)    
Max Wind Speed 9 mph    
Max Gust Speed -    
Visibility 10 miles    
Events      
Averages and records for this station are not official NWS values.
T = Trace of Precipitation, MM = Missing Value Source: NWS Daily Summary

Daily Weather History Graph

Daily Weather History Graph

Search for Another Location

Airport or City:

Trip Planner

Search our weather history database for the weather conditions in past years. The results will help you decide how hot, cold, wet, or windy it might be!

Date:

Astronomy

Mar. 23, 2012 Rise Set
Actual Time 6:53 AM AKDT 7:23 PM AKDT
Civil Twilight 6:15 AM AKDT 8:01 PM AKDT
Nautical Twilight 5:29 AM AKDT 8:48 PM AKDT
Astronomical Twilight 4:39 AM AKDT 9:38 PM AKDT
Moon 6:43 AM AKDT (3/23) 9:23 PM AKDT (3/23)
Length of Visible Light 13h 46m
Length of Day
12h 29m
New Moon, 1% of the Moon is Illuminated
Mar 23
New Moon
Mar 30
First Quarter
Apr 6
Full
Apr 13
Last Quarter
Apr 20
New

Hourly Weather History & Observations

Time (AKDT) Temp. Windchill Dew Point Humidity Pressure Visibility Wind Dir Wind Speed Gust Speed Precip Events Conditions
12:53 AM 30.9 °F - 24.1 °F 76% 29.99 in 10.0 mi Calm Calm - N/A   Clear
1:53 AM 30.9 °F - 23.0 °F 72% 30.01 in 10.0 mi Calm Calm - N/A   Clear
2:53 AM 30.9 °F 27.5 °F 25.0 °F 79% 30.01 in 10.0 mi North 3.5 mph - N/A   Clear
3:53 AM 30.9 °F - 26.1 °F 82% 30.02 in 10.0 mi Calm Calm - N/A   Clear
4:53 AM 28.9 °F - 24.1 °F 82% 30.04 in 10.0 mi Calm Calm - N/A   Clear
5:53 AM 28.9 °F - 24.1 °F 82% 30.04 in 10.0 mi Calm Calm - N/A   Clear
6:53 AM 28.9 °F - 24.1 °F 82% 30.06 in 10.0 mi Calm Calm - N/A   Mostly Cloudy
7:53 AM 30.9 °F - 25.0 °F 79% 30.08 in 10.0 mi Calm Calm - N/A   Scattered Clouds
8:53 AM 32.0 °F 28.7 °F 26.1 °F 79% 30.09 in 10.0 mi NW 3.5 mph - N/A   Scattered Clouds
9:53 AM 34.0 °F - 28.0 °F 79% 30.11 in 10.0 mi Calm Calm - N/A   Mostly Cloudy
10:53 AM 36.0 °F - 26.1 °F 67% 30.13 in 10.0 mi Calm Calm - N/A   Scattered Clouds
11:53 AM 37.9 °F - 24.1 °F 57% 30.14 in 10.0 mi Calm Calm - N/A   Clear
12:53 PM 39.0 °F - 28.0 °F 65% 30.16 in 10.0 mi Calm Calm - N/A   Clear
1:53 PM 39.9 °F 33.9 °F 28.9 °F 65% 30.17 in 10.0 mi SW 9.2 mph - N/A   Clear
2:53 PM 39.0 °F 36.8 °F 30.0 °F 70% 30.19 in 10.0 mi WSW 3.5 mph - N/A   Partly Cloudy
3:53 PM 39.9 °F 35.1 °F 32.0 °F 73% 30.20 in 10.0 mi SW 6.9 mph - N/A   Partly Cloudy
4:53 PM 39.9 °F 35.8 °F 32.0 °F 73% 30.20 in 10.0 mi SW 5.8 mph - N/A   Partly Cloudy
5:53 PM 39.9 °F 37.8 °F 30.9 °F 70% 30.19 in 10.0 mi Variable 3.5 mph - N/A   Partly Cloudy
6:53 PM 39.0 °F 34.8 °F 32.0 °F 76% 30.20 in 10.0 mi SSW 5.8 mph - N/A   Scattered Clouds
7:53 PM 37.9 °F 33.5 °F 30.9 °F 76% 30.21 in 10.0 mi South 5.8 mph - N/A   Scattered Clouds
8:05 PM 37.4 °F 32.8 °F 30.2 °F 75% 30.21 in 10.0 mi ESE 5.8 mph - N/A   Overcast
8:12 PM 37.4 °F 32.1 °F 30.2 °F 75% 30.21 in 10.0 mi ESE 6.9 mph - N/A   Scattered Clouds
8:53 PM 36.0 °F 30.3 °F 30.9 °F 82% 30.21 in 10.0 mi ESE 6.9 mph - N/A   Scattered Clouds
9:53 PM 34.0 °F 28.0 °F 30.0 °F 85% 30.21 in 10.0 mi East 6.9 mph - N/A   Partly Cloudy
10:53 PM 34.0 °F 28.0 °F 30.0 °F 85% 30.20 in 10.0 mi East 6.9 mph - N/A   Clear
11:53 PM 32.0 °F 27.5 °F 28.9 °F 88% 30.20 in 10.0 mi East 4.6 mph - N/A   Clear